TimeCDT,TemperatureF,Dew PointF,Humidity,Sea Level PressureIn,VisibilityMPH,Wind Direction,Wind SpeedMPH,Gust SpeedMPH,PrecipitationIn,Events,Conditions,WindDirDegrees,DateUTC
12:58 AM,65.1,62.4,91,29.99,10.0,ESE,1.2,-,N/A,,Overcast,110,2013-04-29 05:58:00
1:12 AM,64.4,62.6,94,29.99,10.0,ESE,3.5,-,N/A,Rain,Light Rain,110,2013-04-29 06:12:00
1:58 AM,64.4,62.8,94,29.99,7.0,SE,2.3,-,0.08,Rain,Light Rain,130,2013-04-29 06:58:00
2:49 AM,64.4,62.6,94,29.98,5.0,East,6.9,-,N/A,Rain,Rain,90,2013-04-29 07:49:00
2:58 AM,64.0,63.0,96,29.96,4.0,East,6.9,-,0.13,Rain,Light Rain,80,2013-04-29 07:58:00
3:32 AM,64.4,62.6,94,29.96,10.0,ESE,9.2,-,N/A,,Overcast,110,2013-04-29 08:32:00
3:58 AM,64.0,63.1,97,29.96,10.0,East,8.1,-,0.03,,Overcast,90,2013-04-29 08:58:00
4:58 AM,64.2,63.3,97,29.96,10.0,ESE,4.6,-,N/A,,Overcast,110,2013-04-29 09:58:00
5:42 AM,64.4,62.6,94,29.98,10.0,Variable,1.2,-,N/A,,Light Drizzle,0,2013-04-29 10:42:00
5:52 AM,64.4,62.6,94,29.98,10.0,NW,2.3,-,N/A,Rain,Light Rain,310,2013-04-29 10:52:00
5:58 AM,64.2,63.3,97,29.98,10.0,WNW,2.3,-,0.01,Rain,Light Rain,300,2013-04-29 10:58:00
6:10 AM,64.4,62.6,94,29.99,10.0,NW,2.3,-,N/A,,Overcast,320,2013-04-29 11:10:00
6:20 AM,64.4,62.6,94,29.98,10.0,NNE,2.3,-,N/A,,Overcast,30,2013-04-29 11:20:00
6:25 AM,64.4,62.6,94,29.98,10.0,ENE,3.5,-,N/A,,Overcast,60,2013-04-29 11:25:00
6:58 AM,64.2,63.5,98,29.99,10.0,ENE,5.8,-,0.00,,Overcast,70,2013-04-29 11:58:00
7:23 AM,64.4,64.4,100,29.99,10.0,East,3.5,-,N/A,,Overcast,100,2013-04-29 12:23:00
7:36 AM,66.2,64.4,94,30.00,10.0,Variable,2.3,-,N/A,,Overcast,0,2013-04-29 12:36:00
7:58 AM,65.7,64.6,96,30.01,10.0,East,2.3,-,N/A,,Overcast,100,2013-04-29 12:58:00
8:13 AM,66.2,64.4,94,30.01,10.0,East,2.3,-,N/A,,Overcast,80,2013-04-29 13:13:00
8:28 AM,66.2,64.4,94,30.01,10.0,WNW,2.3,-,N/A,,Overcast,300,2013-04-29 13:28:00
8:38 AM,66.2,64.4,94,30.01,8.0,NNW,2.3,-,N/A,,Overcast,330,2013-04-29 13:38:00
8:58 AM,66.7,64.9,94,30.01,9.0,North,1.2,-,N/A,,Overcast,350,2013-04-29 13:58:00
9:03 AM,66.2,64.4,94,30.02,9.0,NW,2.3,-,N/A,,Overcast,310,2013-04-29 14:03:00
9:47 AM,68.0,64.4,88,30.02,10.0,North,1.2,-,N/A,Rain,Light Rain,350,2013-04-29 14:47:00
9:58 AM,67.1,64.9,93,30.02,10.0,Calm,Calm,-,0.00,Rain,Light Rain,0,2013-04-29 14:58:00
10:34 AM,68.0,64.4,88,30.03,10.0,Variable,2.3,-,N/A,,Overcast,0,2013-04-29 15:34:00
10:39 AM,68.0,66.2,94,30.03,10.0,North,2.3,-,N/A,,Overcast,10,2013-04-29 15:39:00
10:44 AM,68.0,66.2,94,30.03,10.0,WNW,3.5,-,N/A,,Overcast,290,2013-04-29 15:44:00
10:54 AM,68.0,66.2,94,30.02,8.0,NW,2.3,-,N/A,,Overcast,320,2013-04-29 15:54:00
10:58 AM,67.8,65.5,92,30.02,8.0,Calm,Calm,-,0.00,,Overcast,0,2013-04-29 15:58:00
11:28 AM,69.8,66.2,88,30.02,10.0,NNE,2.3,-,N/A,,Mostly Cloudy,20,2013-04-29 16:28:00
11:43 AM,69.8,66.2,88,30.02,10.0,NE,3.5,-,N/A,,Overcast,50,2013-04-29 16:43:00
11:48 AM,69.8,66.2,88,30.02,10.0,East,2.3,-,N/A,,Overcast,80,2013-04-29 16:48:00
11:58 AM,70.9,66.0,85,30.01,10.0,NE,4.6,-,N/A,,Mostly Cloudy,40,2013-04-29 16:58:00
12:03 PM,71.6,66.2,83,30.01,10.0,Variable,1.2,-,N/A,,Mostly Cloudy,0,2013-04-29 17:03:00
12:18 PM,71.6,66.2,83,30.00,10.0,Variable,4.6,-,N/A,,Mostly Cloudy,0,2013-04-29 17:18:00
12:23 PM,71.6,66.2,83,30.00,10.0,East,1.2,-,N/A,,Mostly Cloudy,100,2013-04-29 17:23:00
12:43 PM,75.2,66.2,73,29.99,10.0,Variable,2.3,-,N/A,,Overcast,0,2013-04-29 17:43:00
12:58 PM,74.1,65.1,73,29.99,10.0,South,3.5,-,N/A,,Mostly Cloudy,170,2013-04-29 17:58:00
1:20 PM,73.4,66.2,78,29.98,10.0,North,4.6,-,N/A,Thunderstorm,Thunderstorm,360,2013-04-29 18:20:00
1:23 PM,73.4,64.4,73,29.98,10.0,NNW,15.0,17.3,N/A,Rain-Thunderstorm,Light Thunderstorms and Rain,340,2013-04-29 18:23:00
1:28 PM,71.6,66.2,83,29.98,10.0,NNW,15.0,-,N/A,Rain-Thunderstorm,Light Thunderstorms and Rain,330,2013-04-29 18:28:00
1:31 PM,69.8,66.2,88,29.98,7.0,NNW,11.5,17.3,N/A,Rain-Thunderstorm,Heavy Thunderstorms and Rain,330,2013-04-29 18:31:00
1:35 PM,69.8,64.4,83,29.98,4.0,NW,8.1,-,N/A,Rain,Heavy Rain,320,2013-04-29 18:35:00
1:40 PM,68.0,64.4,88,29.99,2.5,WNW,4.6,-,N/A,Rain,Heavy Rain,290,2013-04-29 18:40:00
1:45 PM,68.0,64.4,88,29.98,1.2,Variable,2.3,-,N/A,Rain,Heavy Rain,0,2013-04-29 18:45:00
1:50 PM,68.0,64.4,88,29.97,1.0,East,3.5,-,N/A,Rain,Rain,80,2013-04-29 18:50:00
1:55 PM,68.0,64.4,88,29.97,1.5,Variable,2.3,-,N/A,Rain,Light Rain,0,2013-04-29 18:55:00
1:58 PM,68.0,66.2,94,29.98,5.0,North,2.3,-,0.26,Rain,Light Rain,350,2013-04-29 18:58:00
2:01 PM,69.8,64.4,83,29.97,10.0,Variable,2.3,-,N/A,,Mostly Cloudy,0,2013-04-29 19:01:00
2:58 PM,74.3,65.7,74,29.95,10.0,East,4.6,-,0.00,,Partly Cloudy,80,2013-04-29 19:58:00
3:24 PM,75.2,64.4,69,29.95,10.0,Variable,2.3,-,N/A,,Light Drizzle,0,2013-04-29 20:24:00
3:33 PM,75.2,64.4,69,29.94,10.0,Variable,3.5,-,N/A,,Scattered Clouds,0,2013-04-29 20:33:00
3:58 PM,76.6,65.8,69,29.94,10.0,Variable,6.9,-,0.00,,Partly Cloudy,0,2013-04-29 20:58:00
4:41 PM,77.0,62.6,61,29.94,10.0,SE,4.6,-,N/A,Thunderstorm,Thunderstorm,130,2013-04-29 21:41:00
4:58 PM,73.9,65.5,75,29.94,10.0,South,13.8,21.9,N/A,Thunderstorm,Thunderstorm,180,2013-04-29 21:58:00
5:05 PM,69.8,64.4,83,29.95,10.0,South,18.4,21.9,N/A,,Mostly Cloudy,180,2013-04-29 22:05:00
5:20 PM,68.0,60.8,78,29.95,10.0,SSW,11.5,-,N/A,,Mostly Cloudy,210,2013-04-29 22:20:00
5:25 PM,68.0,60.8,78,29.96,10.0,SW,12.7,-,N/A,,Mostly Cloudy,220,2013-04-29 22:25:00
5:28 PM,68.0,60.8,78,29.96,10.0,SSW,11.5,-,N/A,Rain,Light Rain,210,2013-04-29 22:28:00
5:32 PM,68.0,60.8,78,29.95,4.0,South,9.2,-,N/A,Rain,Light Rain,170,2013-04-29 22:32:00
5:37 PM,66.2,60.8,83,29.95,1.8,SSE,6.9,-,N/A,Rain,Heavy Rain,160,2013-04-29 22:37:00
5:52 PM,66.2,60.8,83,29.95,2.0,Variable,4.6,-,N/A,Rain-Thunderstorm,Light Rain,0,2013-04-29 22:52:00
5:57 PM,66.2,60.8,83,29.94,6.0,SE,3.5,-,N/A,Rain-Thunderstorm,Light Rain,130,2013-04-29 22:57:00
5:58 PM,66.0,60.3,82,29.94,7.0,ESE,2.3,-,0.23,Rain,Light Rain,120,2013-04-29 22:58:00
6:03 PM,68.0,60.8,78,29.94,10.0,Variable,5.8,-,N/A,,Light Drizzle,0,2013-04-29 23:03:00
6:08 PM,68.0,60.8,78,29.94,10.0,SSE,4.6,-,N/A,,Light Drizzle,160,2013-04-29 23:08:00
6:12 PM,68.0,62.6,83,29.93,10.0,SSE,3.5,-,N/A,,Mostly Cloudy,160,2013-04-29 23:12:00
6:58 PM,67.1,63.7,89,29.96,10.0,SSE,4.6,-,0.00,,Scattered Clouds,160,2013-04-29 23:58:00
7:38 PM,66.2,64.4,94,29.96,10.0,ENE,3.5,-,N/A,,Overcast,70,2013-04-30 00:38:00
7:43 PM,66.2,64.4,94,29.97,10.0,SSW,2.3,-,N/A,,Overcast,200,2013-04-30 00:43:00
7:48 PM,66.2,64.4,94,29.97,10.0,SW,4.6,-,N/A,,Overcast,230,2013-04-30 00:48:00
7:53 PM,66.2,64.4,94,29.97,10.0,WSW,2.3,-,N/A,,Overcast,250,2013-04-30 00:53:00
7:58 PM,66.7,64.6,93,29.96,10.0,West,2.3,-,N/A,,Mostly Cloudy,280,2013-04-30 00:58:00
8:08 PM,66.2,64.4,94,29.96,10.0,SE,2.3,-,N/A,,Mostly Cloudy,130,2013-04-30 01:08:00
8:43 PM,66.2,64.4,94,29.95,10.0,Calm,Calm,-,N/A,,Mostly Cloudy,0,2013-04-30 01:43:00
8:58 PM,66.6,65.1,95,29.96,10.0,North,2.3,-,N/A,,Overcast,360,2013-04-30 01:58:00
9:13 PM,68.0,66.2,94,29.95,10.0,East,1.2,-,N/A,,Scattered Clouds,80,2013-04-30 02:13:00
9:14 PM,68.0,66.2,94,29.95,10.0,NE,1.2,-,N/A,,Overcast,40,2013-04-30 02:14:00
9:15 PM,66.2,66.2,100,29.95,10.0,Calm,Calm,-,N/A,,Scattered Clouds,0,2013-04-30 02:15:00
9:28 PM,66.2,64.4,94,29.97,10.0,Variable,1.2,-,N/A,,Overcast,0,2013-04-30 02:28:00
9:33 PM,66.2,64.4,94,29.97,10.0,South,2.3,-,N/A,,Mostly Cloudy,170,2013-04-30 02:33:00
9:43 PM,66.2,64.4,94,29.97,10.0,Calm,Calm,-,N/A,,Mostly Cloudy,0,2013-04-30 02:43:00
9:58 PM,65.8,64.6,96,29.97,10.0,NE,2.3,-,N/A,,Overcast,50,2013-04-30 02:58:00
10:12 PM,64.4,64.4,100,29.97,10.0,NNE,3.5,-,N/A,,Mostly Cloudy,30,2013-04-30 03:12:00
10:22 PM,64.4,64.4,100,29.97,10.0,NE,3.5,-,N/A,,Scattered Clouds,40,2013-04-30 03:22:00
10:58 PM,64.2,63.7,98,29.98,8.0,Calm,Calm,-,N/A,,Scattered Clouds,0,2013-04-30 03:58:00
11:04 PM,62.6,62.6,100,29.97,8.0,Calm,Calm,-,N/A,,Mostly Cloudy,0,2013-04-30 04:04:00
11:09 PM,62.6,62.6,100,29.96,9.0,Calm,Calm,-,N/A,,Mostly Cloudy,0,2013-04-30 04:09:00
11:39 PM,66.2,66.2,100,29.96,7.0,South,4.6,-,N/A,,Overcast,170,2013-04-30 04:39:00
11:44 PM,66.2,66.2,100,29.96,5.0,South,4.6,-,N/A,,Overcast,180,2013-04-30 04:44:00
11:54 PM,66.2,66.2,100,29.96,2.5,South,4.6,-,N/A,,Overcast,180,2013-04-30 04:54:00
11:58 PM,65.8,65.3,98,29.96,2.0,South,3.5,-,N/A,,Overcast,170,2013-04-30 04:58:00